Regional Weather Roundup
Issued by NWS

Home | Current Version | Previous Version | Text Only | Print | Product List | Glossary On
Versions: 1 2 3 4 5 6 7 8 9 10 11 12 13 14 15 16 17 18 19 20 21 22 23 24 25 26 27 28 29 30 31 32 33 34 35 36 37 38 39 40 41 42 43 44 45 46 47 48 49 50
127
ASUS43 KFSD 202110
RWRSD

WEATHER ROUNDUP FOR SOUTH DAKOTA
NATIONAL WEATHER SERVICE SIOUX FALLS SD
300 PM CST MON FEB 20 2017

NOTE: "FAIR" INDICATES FEW OR NO CLOUDS BELOW 12,000 FEET WITH NO
SIGNIFICANT WEATHER AND/OR OBSTRUCTIONS TO VISIBILITY.


SDZ001>005-009-010-012>017-202200-
NORTHWEST AND NORTH CENTRAL SOUTH DAKOTA

CITY           SKY/WX    TMP DP  RH WIND       PRES   REMARKS
BUFFALO          N/A     59  21  23 W25       29.72R
FAITH            N/A     58  26  29 NW18G25   29.76S
MOBRIDGE       SUNNY     53  39  59 N8        29.71S
$$

SDZ012>016-024>037-041>051-057-063-072>074-202200-
SOUTHWEST AND SOUTH CENTRAL SOUTH DAKOTA

CITY           SKY/WX    TMP DP  RH WIND       PRES   REMARKS
RAPID CTY ARPT SUNNY     63  15  15 NW8       29.81S
PIERRE         SUNNY     60  34  37 NW17      29.76R
CUSTER         SUNNY     50  15  24 W16G29    29.87S
ELLSWORTH AFB  SUNNY     62  17  17 S6        29.80S
PINE RIDGE     SUNNY     59  20  22 W17G26    29.87R
SPEARFISH      FAIR      57  19  23 SW20G25   29.82R
WINNER         FAIR      64  33  31 NW20      29.79R
$$

SDZ004>011-016>023-039-040-202200-
NORTHEAST SOUTH DAKOTA

CITY           SKY/WX    TMP DP  RH WIND       PRES   REMARKS
ABERDEEN       MOSUNNY   49  38  65 NW17      29.71R
WATERTOWN      PTSUNNY   44  42  93 NW15      29.66R
BROOKINGS      CLOUDY    48  45  89 W21       29.66R
SISSETON         N/A     43  41  93 NW17      29.62R
$$

SDZ017-020-022-023-036>040-048>070-202200-
SOUTHEAST SOUTH DAKOTA

CITY           SKY/WX    TMP DP  RH WIND       PRES   REMARKS
SIOUX FALLS    CLOUDY    51  45  79 W16       29.70R
HURON          SUNNY     53  42  66 NW18      29.73R
CHAMBERLAIN    SUNNY     60  39  46 NW18G28   29.78R
MITCHELL       PTSUNNY   56  44  64 NW21      29.76R
YANKTON        CLOUDY   N/A N/A N/A NW17      29.73S
$$

ABBREVIATIONS USED IN REMARKS
   TC - TEMPERATURE IN CELSIUS
  WCI - WIND CHILL INDEX
   HX - HEAT INDEX
  VSB - VISIBILITY





USA.gov is the U.S. government's official web portal to all federal, state and local government web resources and services.